Time,TemperatureF,DewpointF,PressureIn,WindDirection,WindDirectionDegrees,WindSpeedMPH,WindSpeedGustMPH,Humidity,HourlyPrecipIn,Conditions,Clouds,dailyrainin,SolarRadiationWatts/m^2,SoftwareType,DateUTC
2013-03-04 00:01:00,33.0,26.0,-100.00,NNW,347,1.0,2.0,75,0.00,,,0.04,1.000000,,2013-03-04 07:01:00,
2013-03-04 00:11:00,33.0,26.0,-100.00,NNW,347,1.0,2.0,75,0.00,,,0.04,1.000000,,2013-03-04 07:11:00,
2013-03-04 00:32:00,30.0,24.0,-100.00,NW,325,1.0,3.0,79,0.00,,,0.04,1.000000,,2013-03-04 07:32:00,
2013-03-04 00:42:00,30.0,24.0,-100.00,NW,325,1.0,3.0,79,0.00,,,0.04,1.000000,,2013-03-04 07:42:00,
2013-03-04 00:52:00,30.0,24.0,-100.00,NW,325,1.0,3.0,79,0.00,,,0.04,1.000000,,2013-03-04 07:52:00,
2013-03-04 01:01:00,30.0,24.0,-100.00,NW,325,1.0,3.0,79,0.00,,,0.04,1.000000,,2013-03-04 08:01:00,
2013-03-04 01:11:00,30.0,24.0,-100.00,NW,325,1.0,3.0,79,0.00,,,0.04,1.000000,,2013-03-04 08:11:00,
2013-03-04 01:42:00,30.0,25.0,-100.00,NNW,342,1.0,2.0,81,0.00,,,0.03,1.000000,,2013-03-04 08:42:00,
2013-03-04 01:52:00,30.0,25.0,-100.00,NNW,342,1.0,2.0,81,0.00,,,0.03,1.000000,,2013-03-04 08:52:00,
2013-03-04 02:01:00,30.0,25.0,-100.00,NNW,342,1.0,2.0,81,0.00,,,0.03,1.000000,,2013-03-04 09:01:00,
2013-03-04 02:11:00,30.0,25.0,-100.00,NNW,342,1.0,2.0,81,0.00,,,0.03,1.000000,,2013-03-04 09:11:00,
2013-03-04 02:32:00,31.0,26.0,-100.00,NW,314,2.0,3.0,81,0.00,,,0.03,1.000000,,2013-03-04 09:32:00,
2013-03-04 02:42:00,31.0,26.0,-100.00,NW,314,2.0,3.0,81,0.00,,,0.03,1.000000,,2013-03-04 09:42:00,
2013-03-04 02:52:00,31.0,26.0,-100.00,NW,314,2.0,3.0,81,0.00,,,0.03,1.000000,,2013-03-04 09:52:00,
2013-03-04 03:01:00,31.0,26.0,-100.00,NW,314,2.0,3.0,81,0.00,,,0.03,1.000000,,2013-03-04 10:01:00,
2013-03-04 03:11:00,31.0,26.0,-100.00,NW,314,2.0,3.0,81,0.00,,,0.03,1.000000,,2013-03-04 10:11:00,
2013-03-04 03:42:00,32.0,27.0,-100.00,NNW,327,1.0,3.0,80,0.00,,,0.02,1.000000,,2013-03-04 10:42:00,
2013-03-04 03:52:00,32.0,27.0,-100.00,NNW,327,1.0,3.0,80,0.00,,,0.02,1.000000,,2013-03-04 10:52:00,
2013-03-04 04:01:00,32.0,27.0,-100.00,NNW,327,1.0,3.0,80,0.00,,,0.02,1.000000,,2013-03-04 11:01:00,
2013-03-04 04:11:00,32.0,27.0,-100.00,NNW,327,1.0,3.0,80,0.00,,,0.02,1.000000,,2013-03-04 11:11:00,
2013-03-04 04:32:00,31.0,26.0,-100.00,NNW,344,1.0,5.0,81,0.00,,,0.02,1.000000,,2013-03-04 11:32:00,
2013-03-04 04:42:00,31.0,26.0,-100.00,NNW,344,1.0,5.0,81,0.00,,,0.02,1.000000,,2013-03-04 11:42:00,
2013-03-04 04:52:00,31.0,26.0,-100.00,NNW,344,1.0,5.0,81,0.00,,,0.02,1.000000,,2013-03-04 11:52:00,
2013-03-04 05:32:00,32.0,27.0,-100.00,NNW,329,1.0,3.0,82,0.00,,,0.02,1.000000,,2013-03-04 12:32:00,
2013-03-04 05:42:00,32.0,27.0,-100.00,NNW,329,1.0,3.0,82,0.00,,,0.02,1.000000,,2013-03-04 12:42:00,
2013-03-04 05:53:00,32.0,27.0,-100.00,NNW,329,1.0,3.0,82,0.00,,,0.02,1.000000,,2013-03-04 12:53:00,
2013-03-04 06:02:00,32.0,27.0,-100.00,NNW,329,1.0,3.0,82,0.00,,,0.02,1.000000,,2013-03-04 13:02:00,
2013-03-04 06:11:00,32.0,27.0,-100.00,NNW,329,1.0,3.0,82,0.00,,,0.02,1.000000,,2013-03-04 13:11:00,
2013-03-04 06:42:00,30.0,26.0,-100.00,North,11,0.0,2.0,84,0.00,,,0.02,1.000000,,2013-03-04 13:42:00,
2013-03-04 06:52:00,30.0,26.0,-100.00,North,11,0.0,2.0,84,0.00,,,0.02,1.000000,,2013-03-04 13:52:00,
2013-03-04 07:11:00,30.0,26.0,-100.00,North,11,0.0,2.0,84,0.00,,,0.02,1.000000,,2013-03-04 14:11:00,
2013-03-04 07:42:00,32.0,27.0,-100.00,NW,314,0.0,4.0,80,0.00,,,0.02,10.000000,,2013-03-04 14:42:00,
2013-03-04 07:52:00,32.0,27.0,-100.00,NW,314,0.0,4.0,80,0.00,,,0.02,10.000000,,2013-03-04 14:52:00,
2013-03-04 08:01:00,32.0,27.0,-100.00,NW,314,0.0,4.0,80,0.00,,,0.02,10.000000,,2013-03-04 15:01:00,
2013-03-04 08:11:00,32.0,27.0,-100.00,NW,314,0.0,4.0,80,0.00,,,0.02,10.000000,,2013-03-04 15:11:00,
2013-03-04 08:42:00,42.0,27.0,-100.00,WNW,291,1.0,4.0,56,0.00,,,0.02,83.000000,,2013-03-04 15:42:00,
2013-03-04 08:52:00,42.0,27.0,-100.00,WNW,291,1.0,4.0,56,0.00,,,0.02,83.000000,,2013-03-04 15:52:00,
2013-03-04 09:02:00,42.0,27.0,-100.00,WNW,291,1.0,4.0,56,0.00,,,0.02,83.000000,,2013-03-04 16:02:00,
2013-03-04 09:11:00,42.0,27.0,-100.00,WNW,291,1.0,4.0,56,0.00,,,0.02,83.000000,,2013-03-04 16:11:00,
2013-03-04 09:42:00,51.0,26.0,-100.00,SW,227,5.0,11.0,38,0.00,,,0.02,393.000000,,2013-03-04 16:42:00,
2013-03-04 09:52:00,51.0,26.0,-100.00,SW,227,5.0,11.0,38,0.00,,,0.02,393.000000,,2013-03-04 16:52:00,
2013-03-04 10:02:00,51.0,26.0,-100.00,SW,227,5.0,11.0,38,0.00,,,0.02,393.000000,,2013-03-04 17:02:00,
2013-03-04 10:11:00,51.0,26.0,-100.00,SW,227,5.0,11.0,38,0.00,,,0.02,393.000000,,2013-03-04 17:11:00,
2013-03-04 10:42:00,54.0,27.0,-100.00,West,270,6.0,13.0,35,0.00,,,0.02,664.000000,,2013-03-04 17:42:00,
2013-03-04 10:52:00,54.0,27.0,-100.00,West,270,6.0,13.0,35,0.00,,,0.02,664.000000,,2013-03-04 17:52:00,
2013-03-04 11:01:00,54.0,27.0,-100.00,West,270,6.0,13.0,35,0.00,,,0.02,664.000000,,2013-03-04 18:01:00,
2013-03-04 11:11:00,54.0,27.0,-100.00,West,270,6.0,13.0,35,0.00,,,0.02,664.000000,,2013-03-04 18:11:00,
2013-03-04 11:42:00,54.0,28.0,-100.00,WSW,252,6.0,14.0,36,0.00,,,0.02,614.000000,,2013-03-04 18:42:00,
2013-03-04 11:52:00,54.0,28.0,-100.00,WSW,252,6.0,14.0,36,0.00,,,0.02,614.000000,,2013-03-04 18:52:00,
2013-03-04 12:01:00,54.0,28.0,-100.00,WSW,252,6.0,14.0,36,0.00,,,0.02,614.000000,,2013-03-04 19:01:00,
2013-03-04 12:11:00,54.0,28.0,-100.00,WSW,252,6.0,14.0,36,0.00,,,0.02,614.000000,,2013-03-04 19:11:00,
2013-03-04 12:42:00,51.0,31.0,-100.00,WNW,295,7.0,20.0,46,0.00,,,0.02,474.000000,,2013-03-04 19:42:00,
2013-03-04 12:52:00,51.0,31.0,-100.00,WNW,295,7.0,20.0,46,0.00,,,0.02,474.000000,,2013-03-04 19:52:00,
2013-03-04 13:01:00,51.0,31.0,-100.00,WNW,295,7.0,20.0,46,0.00,,,0.02,474.000000,,2013-03-04 20:01:00,
2013-03-04 13:11:00,51.0,31.0,-100.00,WNW,295,7.0,20.0,46,0.00,,,0.02,474.000000,,2013-03-04 20:11:00,
2013-03-04 13:42:00,55.0,31.0,-100.00,West,267,7.0,15.0,39,0.00,,,0.02,788.000000,,2013-03-04 20:42:00,
2013-03-04 13:52:00,55.0,31.0,-100.00,West,267,7.0,15.0,39,0.00,,,0.02,788.000000,,2013-03-04 20:52:00,
2013-03-04 14:01:00,55.0,31.0,-100.00,West,267,7.0,15.0,39,0.00,,,0.02,788.000000,,2013-03-04 21:01:00,
2013-03-04 14:11:00,55.0,31.0,-100.00,West,267,7.0,15.0,39,0.00,,,0.02,788.000000,,2013-03-04 21:11:00,
2013-03-04 14:32:00,56.0,27.0,-100.00,WNW,288,9.0,22.0,33,0.00,,,0.02,725.000000,,2013-03-04 21:32:00,
2013-03-04 14:43:00,56.0,27.0,-100.00,WNW,288,9.0,22.0,33,0.00,,,0.02,725.000000,,2013-03-04 21:43:00,
2013-03-04 14:52:00,56.0,27.0,-100.00,WNW,288,9.0,22.0,33,0.00,,,0.02,725.000000,,2013-03-04 21:52:00,
2013-03-04 15:01:00,56.0,27.0,-100.00,WNW,288,9.0,22.0,33,0.00,,,0.02,725.000000,,2013-03-04 22:01:00,
2013-03-04 15:11:00,56.0,27.0,-100.00,WNW,288,9.0,22.0,33,0.00,,,0.02,725.000000,,2013-03-04 22:11:00,
2013-03-04 15:43:00,57.0,26.0,-100.00,WNW,284,7.0,18.0,30,0.00,,,0.02,792.000000,,2013-03-04 22:43:00,
2013-03-04 15:52:00,57.0,26.0,-100.00,WNW,284,7.0,18.0,30,0.00,,,0.02,792.000000,,2013-03-04 22:52:00,
2013-03-04 16:01:00,57.0,26.0,-100.00,WNW,284,7.0,18.0,30,0.00,,,0.02,792.000000,,2013-03-04 23:01:00,
2013-03-04 16:11:00,57.0,26.0,-100.00,WNW,284,7.0,18.0,30,0.00,,,0.02,792.000000,,2013-03-04 23:11:00,
2013-03-04 16:32:00,57.0,25.0,-100.00,West,276,8.0,17.0,29,0.00,,,0.02,640.000000,,2013-03-04 23:32:00,
2013-03-04 16:42:00,57.0,25.0,-100.00,West,276,8.0,17.0,29,0.00,,,0.02,640.000000,,2013-03-04 23:42:00,
2013-03-04 16:52:00,57.0,25.0,-100.00,West,276,8.0,17.0,29,0.00,,,0.02,640.000000,,2013-03-04 23:52:00,
2013-03-04 17:01:00,57.0,25.0,-100.00,West,276,8.0,17.0,29,0.00,,,0.02,640.000000,,2013-03-05 00:01:00,
2013-03-04 17:11:00,57.0,25.0,-100.00,West,276,8.0,17.0,29,0.00,,,0.02,640.000000,,2013-03-05 00:11:00,
2013-03-04 17:42:00,50.0,28.0,-100.00,WNW,289,8.0,17.0,43,0.00,,,0.00,226.000000,,2013-03-05 00:42:00,
2013-03-04 17:52:00,50.0,28.0,-100.00,WNW,289,8.0,17.0,43,0.00,,,0.00,226.000000,,2013-03-05 00:52:00,
2013-03-04 18:01:00,50.0,28.0,-100.00,WNW,289,8.0,17.0,43,0.00,,,0.00,226.000000,,2013-03-05 01:01:00,
2013-03-04 18:11:00,50.0,28.0,-100.00,WNW,289,8.0,17.0,43,0.00,,,0.00,226.000000,,2013-03-05 01:11:00,
2013-03-04 18:42:00,46.0,27.0,-100.00,WNW,283,3.0,11.0,48,0.00,,,0.00,96.000000,,2013-03-05 01:42:00,
2013-03-04 18:52:00,46.0,27.0,-100.00,WNW,283,3.0,11.0,48,0.00,,,0.00,96.000000,,2013-03-05 01:52:00,
2013-03-04 19:01:00,46.0,27.0,-100.00,WNW,283,3.0,11.0,48,0.00,,,0.00,96.000000,,2013-03-05 02:01:00,
2013-03-04 19:11:00,46.0,27.0,-100.00,WNW,283,3.0,11.0,48,0.00,,,0.00,96.000000,,2013-03-05 02:11:00,
2013-03-04 19:42:00,44.0,18.0,-100.00,WNW,290,5.0,11.0,35,0.00,,,0.00,1.000000,,2013-03-05 02:42:00,
2013-03-04 19:52:00,44.0,18.0,-100.00,WNW,290,5.0,11.0,35,0.00,,,0.00,1.000000,,2013-03-05 02:52:00,
2013-03-04 20:01:00,44.0,18.0,-100.00,WNW,290,5.0,11.0,35,0.00,,,0.00,1.000000,,2013-03-05 03:01:00,
2013-03-04 20:11:00,44.0,18.0,-100.00,WNW,290,5.0,11.0,35,0.00,,,0.00,1.000000,,2013-03-05 03:11:00,
2013-03-04 20:32:00,37.0,14.0,-100.00,SSE,165,0.0,9.0,38,0.00,,,0.00,1.000000,,2013-03-05 03:32:00,
2013-03-04 20:42:00,37.0,14.0,-100.00,SSE,165,0.0,9.0,38,0.00,,,0.00,1.000000,,2013-03-05 03:42:00,
2013-03-04 20:52:00,37.0,14.0,-100.00,SSE,165,0.0,9.0,38,0.00,,,0.00,1.000000,,2013-03-05 03:52:00,
2013-03-04 21:01:00,37.0,14.0,-100.00,SSE,165,0.0,9.0,38,0.00,,,0.00,1.000000,,2013-03-05 04:01:00,
2013-03-04 21:11:00,37.0,14.0,-100.00,SSE,165,0.0,9.0,38,0.00,,,0.00,1.000000,,2013-03-05 04:11:00,
2013-03-04 21:32:00,26.0,14.0,-100.00,WNW,296,1.0,3.0,61,0.00,,,0.00,1.000000,,2013-03-05 04:32:00,
2013-03-04 22:32:00,22.0,15.0,-100.00,WNW,284,1.0,3.0,75,-99.99,,,0.00,1.000000,,2013-03-05 05:32:00,
2013-03-04 23:32:00,22.0,15.0,-100.00,NW,321,2.0,4.0,74,-99.99,,,0.01,1.000000,,2013-03-05 06:32:00,